Zurück zum Katalog

COSMOS 2499 DEB

AktivPO
NORAD 49936·DEBRIS·🇷🇺 Russia

Gestartet May 23, 2014 von Plesetsk Cosmodrome

Loading…

Nächste Überflüge (nächste 24 Stunden)

TLE

AktuellSource: Space-Track

Epoche: Sep 13, 2026, 12:53 UTC

1 49936U 14028T   26256.53702148  .00004257  00000-0  87292-2 0  9995
2 49936  82.5302 172.4011 0329339 337.1996  21.4776 13.14339599100595

Verfolge COSMOS 2499 DEB in Echtzeit mit AllMySat

Download on the App Store